Weather History for Jefferson, GA

Change the Weather History Date:

Tuesday, November 6, 2012

  Actual Average (KGVL) Record (KGVL)
Temperature  
Mean Temperature 46 °F 56 °F  
Max Temperature 51 °F 65 °F 80 °F (1938)
Min Temperature 42 °F 46 °F 24 °F (1939)
Degree Days  
Heating Degree Days 18 10  
Month to date heating degree days 54  
Since 1 July heating degree days 212  
Moisture  
Dew Point 34 °F    
Average Humidity 66    
Maximum Humidity 100    
Minimum Humidity 35    
Precipitation  
Precipitation 0.00 in 0.12 in 2.35 in (1977)
Month to date precipitation 0.66  
Year to date precipitation 45.67  
Snow  
Snow - - - ()
Month to date snowfall  
Since 1 July snowfall  
Since 1 September snowfall  
Snow Depth -    
Sea Level Pressure  
Sea Level Pressure 29.98 in    
Wind  
Wind Speed 3 mph ()    
Max Wind Speed 10 mph    
Max Gust Speed 18 mph    
Visibility 8.2 miles    
Events Rain , Thunderstorm    
T = Trace of Precipitation, MM = Missing Value Source: Averaged Metar Reports

Daily Weather History Graph

Daily Weather History Graph

Search for Another Location

Airport:

Trip Planner

Search our weather history database for the weather conditions in past years. The results will help you decide how hot, cold, wet, or windy it might be!

Date:

Astronomy

Nov. 06, 2012 Rise Set
Actual Time 6:59 AM EST 5:36 PM EST
Civil Twilight 6:32 AM EST 6:02 PM EST
Nautical Twilight 6:02 AM EST 6:32 PM EST
Astronomical Twilight 5:33 AM EST 7:01 PM EST
Moon No Moon Rise 12:52 PM EST (11/6)
Length of Visible Light 11h 29m
Length of Day
10h 37m
Waning Gibbous, 53% of the Moon is Illuminated
Nov 6
Waning Gibbous
Nov 6
Last Quarter
Nov 13
New
Nov 20
First Quarter
Nov 28
Full

Hourly Weather History & Observations

Time (EST) Temp. Windchill Dew Point Humidity Pressure Visibility Wind Dir Wind Speed Gust Speed Precip Events Conditions
12:15 AM 50.0 °F - 33.8 °F 54% 29.98 in 10.0 mi Calm Calm - N/A   Light Drizzle
12:35 AM 50.0 °F - 35.6 °F 58% 29.98 in 10.0 mi Calm Calm - N/A Rain Rain
12:55 AM 46.4 °F - 35.6 °F 66% 29.98 in 7.0 mi Calm Calm - N/A Rain Rain
1:15 AM 46.4 °F - 42.8 °F 87% 29.97 in 7.0 mi Calm Calm - N/A Rain Light Rain
1:35 AM 46.4 °F 45.2 °F 42.8 °F 87% 29.97 in 10.0 mi ENE 3.5 mph - N/A Rain Light Rain
1:55 AM 46.4 °F - 42.8 °F 87% 29.97 in 7.0 mi Calm Calm - N/A Rain Light Rain
2:15 AM 46.4 °F - 42.8 °F 87% 29.98 in 5.0 mi Calm Calm - N/A Rain Rain
2:35 AM 46.4 °F - 42.8 °F 87% 29.99 in 4.0 mi Calm Calm - N/A Rain Rain
2:55 AM 44.6 °F - 44.6 °F 100% 29.98 in 4.0 mi Calm Calm - N/A Rain Rain
3:15 AM 44.6 °F - 42.8 °F 93% 29.98 in 5.0 mi Calm Calm - N/A Rain Rain
3:35 AM 44.6 °F 43.1 °F 42.8 °F 93% 29.97 in 4.0 mi NE 3.5 mph - N/A Rain Rain
4:15 AM 44.6 °F 43.1 °F 42.8 °F 93% 29.98 in 5.0 mi ENE 3.5 mph - N/A Rain Rain
4:35 AM 44.6 °F - 42.8 °F 93% 29.98 in 5.0 mi Calm Calm - N/A Rain Light Rain
4:55 AM 44.6 °F 43.1 °F 42.8 °F 93% 29.99 in 5.0 mi ENE 3.5 mph - N/A Rain Rain
5:15 AM 44.6 °F 43.1 °F 42.8 °F 93% 30.00 in 5.0 mi East 3.5 mph - N/A Rain Rain
5:35 AM 42.8 °F 40.1 °F 42.8 °F 100% 30.00 in 5.0 mi ENE 4.6 mph - N/A Rain Light Rain
5:55 AM 42.8 °F 38.0 °F 41.0 °F 93% 29.99 in 5.0 mi East 8.1 mph - N/A Rain Rain
6:15 AM 42.8 °F 40.1 °F 41.0 °F 93% 29.99 in 5.0 mi ENE 4.6 mph - N/A Rain Rain
6:35 AM 42.8 °F 39.3 °F 41.0 °F 93% 30.00 in 7.0 mi ENE 5.8 mph - N/A Rain Light Rain
7:15 AM 42.8 °F 40.1 °F 41.0 °F 93% 30.01 in 5.0 mi East 4.6 mph - N/A Rain Rain
7:35 AM 42.8 °F 40.1 °F 41.0 °F 93% 30.02 in 4.0 mi East 4.6 mph - N/A Rain Rain
7:55 AM 42.8 °F 40.1 °F 41.0 °F 93% 30.02 in 3.0 mi East 4.6 mph - N/A Rain Light Rain
8:15 AM 42.8 °F 40.1 °F 41.0 °F 93% 30.02 in 3.0 mi ENE 4.6 mph - N/A Rain Light Rain
8:35 AM 42.8 °F 38.0 °F 41.0 °F 93% 30.03 in 3.0 mi ENE 8.1 mph - N/A Rain Light Rain
8:55 AM 42.8 °F 39.3 °F 41.0 °F 93% 30.03 in 4.0 mi East 5.8 mph - N/A Rain , Thunderstorm Light Thunderstorms and Rain
9:15 AM 42.8 °F 39.3 °F 41.0 °F 93% 30.03 in 4.0 mi NE 5.8 mph - N/A Thunderstorm Overcast
9:35 AM 42.8 °F 40.1 °F 41.0 °F 93% 30.03 in 5.0 mi ENE 4.6 mph - N/A   Overcast
9:55 AM 42.8 °F 39.3 °F 41.0 °F 93% 30.03 in 7.0 mi ENE 5.8 mph - N/A   Overcast
10:15 AM 44.6 °F 40.2 °F 39.2 °F 81% 30.03 in 10.0 mi ENE 8.1 mph - N/A   Overcast
10:35 AM 44.6 °F 41.4 °F 37.4 °F 76% 30.02 in 10.0 mi East 5.8 mph - N/A   Overcast
10:55 AM 46.4 °F 42.4 °F 37.4 °F 71% 30.01 in 10.0 mi East 8.1 mph - N/A   Mostly Cloudy
11:15 AM 46.4 °F 41.5 °F 33.8 °F 62% 30.01 in 10.0 mi East 10.4 mph 16.1 mph N/A   Scattered Clouds
11:35 AM 46.4 °F 42.4 °F 33.8 °F 62% 30.00 in 10.0 mi ENE 8.1 mph - N/A   Scattered Clouds
11:55 AM 50.0 °F - 32.0 °F 50% 29.99 in 10.0 mi East 5.8 mph - N/A   Mostly Cloudy
12:15 PM 50.0 °F - 32.0 °F 50% 29.99 in 10.0 mi ENE 6.9 mph - N/A   Mostly Cloudy
12:35 PM 48.2 °F - 32.0 °F 54% 29.98 in 10.0 mi East 8.1 mph - N/A   Overcast
12:55 PM 50.0 °F - 30.2 °F 47% 29.98 in 10.0 mi East 4.6 mph - N/A   Overcast
1:15 PM 50.0 °F - 30.2 °F 47% 29.97 in 10.0 mi ENE 4.6 mph - N/A   Overcast
1:35 PM 51.8 °F - 26.6 °F 38% 29.95 in 10.0 mi East 6.9 mph 18.4 mph N/A   Overcast
1:55 PM 51.8 °F - 26.6 °F 38% 29.94 in 10.0 mi ENE 4.6 mph - N/A   Scattered Clouds
2:15 PM 51.8 °F - 26.6 °F 38% 29.93 in 10.0 mi East 6.9 mph - N/A   Scattered Clouds
2:35 PM 51.8 °F - 26.6 °F 38% 29.93 in 10.0 mi NE 5.8 mph - N/A   Mostly Cloudy
2:55 PM 51.8 °F - 24.8 °F 35% 29.93 in 10.0 mi East 5.8 mph - N/A   Scattered Clouds
3:15 PM 51.8 °F - 26.6 °F 38% 29.92 in 10.0 mi East 4.6 mph - N/A   Mostly Cloudy
3:35 PM 51.8 °F - 26.6 °F 38% 29.92 in 10.0 mi East 8.1 mph - N/A   Mostly Cloudy
3:55 PM 51.8 °F - 24.8 °F 35% 29.92 in 10.0 mi NE 3.5 mph - N/A   Overcast
4:15 PM 51.8 °F - 24.8 °F 35% 29.93 in 10.0 mi East 3.5 mph - N/A   Overcast
4:35 PM 50.0 °F - 26.6 °F 40% 29.94 in 10.0 mi ENE 3.5 mph - N/A   Overcast
4:55 PM 50.0 °F - 26.6 °F 40% 29.95 in 10.0 mi Calm Calm - N/A   Overcast
5:15 PM 50.0 °F - 26.6 °F 40% 29.96 in 10.0 mi Calm Calm - N/A   Overcast
5:35 PM 48.2 °F - 28.4 °F 46% 29.96 in 10.0 mi Calm Calm - N/A   Overcast
5:55 PM 46.4 °F 45.2 °F 26.6 °F 46% 29.94 in 10.0 mi East 3.5 mph - N/A   Mostly Cloudy
6:35 PM 46.4 °F - 26.6 °F 46% 29.96 in 10.0 mi Calm Calm - N/A   Overcast
6:55 PM 46.4 °F - 28.4 °F 50% 29.95 in 10.0 mi Calm Calm - N/A   Overcast
7:15 PM 46.4 °F - 28.4 °F 50% 29.96 in 10.0 mi Calm Calm - N/A   Overcast
7:35 PM 46.4 °F - 28.4 °F 50% 29.96 in 10.0 mi Calm Calm - N/A   Overcast
7:55 PM 46.4 °F - 28.4 °F 50% 29.96 in 10.0 mi Calm Calm - N/A   Overcast
8:15 PM 44.6 °F 43.1 °F 28.4 °F 53% 29.96 in 10.0 mi East 3.5 mph - N/A   Overcast
8:35 PM 44.6 °F - 28.4 °F 53% 29.98 in 10.0 mi Calm Calm - N/A   Overcast
8:55 PM 44.6 °F - 28.4 °F 53% 29.98 in 10.0 mi Calm Calm - N/A   Overcast
9:15 PM 44.6 °F - 30.2 °F 57% 29.98 in 10.0 mi Calm Calm - N/A   Overcast
9:35 PM 44.6 °F - 30.2 °F 57% 29.98 in 10.0 mi Calm Calm - N/A   Overcast
9:55 PM 44.6 °F 43.1 °F 28.4 °F 53% 29.98 in 10.0 mi ENE 3.5 mph - N/A   Overcast
10:15 PM 44.6 °F - 28.4 °F 53% 29.97 in 10.0 mi Calm Calm - N/A   Overcast
10:35 PM 44.6 °F - 30.2 °F 57% 29.97 in 10.0 mi Calm Calm - N/A   Overcast
10:55 PM 42.8 °F - 30.2 °F 61% 29.96 in 10.0 mi Calm Calm - N/A   Overcast
11:15 PM 42.8 °F - 30.2 °F 61% 29.96 in 10.0 mi Calm Calm - N/A   Overcast
11:35 PM 42.8 °F - 30.2 °F 61% 29.96 in 10.0 mi Calm Calm - N/A   Overcast
11:55 PM 42.8 °F - 30.2 °F 61% 29.96 in 10.0 mi Calm Calm - N/A   Overcast